Location: Unspecified
(0.0000°N, 0.0000°E)
Time: 03:14:40
(UTC+00:00)

Vanguard 1 - Pass Details

Date: 10 December 2023
Orbit: 653 x 3826 km, 34.3° (Epoch: 22 February)

Event Time Altitude Azimuth Distance (km) Brightness Sun altitude
Rises 11:26:58 0° 211° (SSW) 2,979 12.8 66.3°
Reaches altitude 10° 11:29:23 10° 197° (SSW) 2,146 12.3 66.4°
Maximum altitude 11:33:25 27° 138° (SE) 1,537 11.9 66.6°
Drops below altitude 10° 11:38:51 10° 82° (E) 2,944 12.7 66.8°
Sets 11:42:48 0° 71° (ENE) 4,373 13.3 67.0°
